This is the latest recevied weather packets stored in our database for station/object SV9TNF-2. If no packets are shown the sender has not sent any weather packets the latest 10 day(s).
| Time | Temp. | Humidity | Pressure | Rain* | Wind** | Luminosity | Snow |
|---|---|---|---|---|---|---|---|
| 1777521583 | 13.89° C | 55% | 1021.7 hPa | 0 mm | 3.13 m/s, 199° | - | - |
| 1777521283 | 13.33° C | 57% | 1021.7 hPa | 0 mm | 5.81 m/s, 46° | - | - |
| 1777520983 | 13.33° C | 59% | 1021.7 hPa | 0 mm | 5.81 m/s, 192° | - | - |
| 1777520683 | 13.33° C | 59% | 1021.7 hPa | 0 mm | 6.26 m/s, 196° | - | - |
| 1777520382 | 13.33° C | 58% | 1021.7 hPa | 0 mm | 7.15 m/s, 218° | - | - |
| 1777520083 | 13.33° C | 59% | 1021 hPa | 0 mm | 9.83 m/s, 180° | - | - |
| 1777519782 | 12.78° C | 61% | 1021 hPa | 0 mm | 5.81 m/s, 178° | - | - |
| 1777519482 | 12.78° C | 62% | 1021 hPa | 0 mm | 6.71 m/s, 217° | - | - |
| 1777519182 | 12.78° C | 61% | 1021 hPa | 0 mm | 3.58 m/s, 175° | - | - |
| 1777518882 | 12.78° C | 60% | 1021 hPa | 0 mm | 3.13 m/s, 142° | - | - |
| 1777518582 | 12.78° C | 62% | 1021 hPa | 0 mm | 4.47 m/s, 223° | - | - |
| 1777518282 | 12.78° C | 61% | 1021 hPa | 0 mm | 6.26 m/s, 222° | - | - |
| 1777517982 | 13.33° C | 61% | 1021 hPa | 0 mm | 6.26 m/s, 232° | - | - |
| 1777517682 | 13.33° C | 60% | 1021 hPa | 0 mm | 4.92 m/s, 194° | - | - |
| 1777517381 | 13.33° C | 59% | 1021 hPa | 0 mm | 2.68 m/s, 180° | - | - |
| 1777517082 | 13.33° C | 60% | 1021 hPa | 0 mm | 4.47 m/s, 193° | - | - |
| 1777516781 | 13.33° C | 60% | 1021 hPa | 0 mm | 6.71 m/s, 172° | - | - |
| 1777516481 | 13.33° C | 60% | 1021.7 hPa | 0 mm | 8.05 m/s, 197° | - | - |
| 1777516181 | 13.33° C | 60% | 1021.7 hPa | 0 mm | 8.49 m/s, 189° | - | - |
| 1777515881 | 13.33° C | 60% | 1021.7 hPa | 0 mm | 4.92 m/s, 122° | - | - |
| 1777515581 | 13.33° C | 59% | 1021.7 hPa | 0 mm | 5.81 m/s, 177° | - | - |
| 1777515281 | 13.89° C | 56% | 1021.7 hPa | 0 mm | 7.15 m/s, 204° | - | - |
| 1777514981 | 13.89° C | 55% | 1021.7 hPa | 0 mm | 5.81 m/s, 206° | - | - |
| 1777514681 | 13.89° C | 57% | 1021.7 hPa | 0 mm | 3.13 m/s, 178° | - | - |
| 1777514381 | 13.89° C | 57% | 1021.7 hPa | 0 mm | 4.47 m/s, 85° | - | - |
* Rain latest hour (hover to see other rain measurements)
** Current wind speed in m/s (hover to see current wind gust speed)